Volver al catálogo

COSMOS 1867 COOLANT

ActivoLEO
NORAD 39662·DEBRIS·🇷🇺 Russia

Lanzado Jul 10, 1987 desde Baikonur Cosmodrome

Loading…

Próximos Pases (próximas 24 horas)

TLE

ActualizadoSource: Space-Track

Época: Sep 14, 2026, 07:40 UTC

1 39662U 87060Z   26257.32011912  .00000208  00000-0  10892-3 0  9991
2 39662  65.0068 114.6388 0017790 281.5316  78.3773 14.34693695648287

Sigue COSMOS 1867 COOLANT en tiempo real con AllMySat

Download on the App Store